Location: Stull Observatory
(42.2506°N, 77.7903°W)
Time: 15:11:26
(UTC-04:00)

Daily predictions for brighter satellites

Satellite Brightness Start Highest point End
(mag) Time Altitude Azimuth Time Altitude Azimuth Time Altitude Azimuth
H-2A R/B 2.9 20:25:53 10° SSE 20:29:48 85° WSW 20:33:42 10° NNW
Meteor 2-3 Rocket 4.0 20:24:56 10° NNW 20:30:40 81° W 20:36:24 10° S
Cosmos 1302 Rocket 4.0 20:26:48 10° S 20:31:54 61° ESE 20:37:02 10° NNE
Envisat 3.8 20:27:27 10° SE 20:31:58 34° ENE 20:36:32 10° N
Cosmos 1315 Rocket 3.0 20:31:00 10° N 20:35:03 58° ENE 20:39:01 10° SSE
Cosmos 2360 Rocket 3.9 20:36:30 10° ESE 20:38:24 12° E 20:40:18 10° ENE
Cosmos 1980 Rocket 2.3 20:32:48 10° SSW 20:38:29 90° W 20:44:14 10° NNE
Cosmos 2026 Rocket 4.4 20:36:30 10° N 20:42:26 44° ENE 20:48:15 10° SSE
USA 234 3.5 20:36:09 10° ESE 20:42:36 65° NE 20:49:03 10° NW
Intercosmos 25 Rocket 4.0 20:44:28 10° SSE 20:47:14 27° E 20:50:30 10° NNE
Cosmos 1825 3.0 20:45:22 10° N 20:48:50 33° ENE 20:52:19 10° SE
CZ-2D R/B 3.5 20:46:19 10° S 20:50:13 73° W 20:54:07 10° NNW
Nadezhda 4 Rocket 4.5 20:47:21 10° NNW 20:53:33 66° W 20:59:46 10° S
SL-16 R/B 2.5 20:49:40 10° S 20:55:00 44° ESE 21:00:21 10° NE
ATLAS 5 CENTAUR R/B 3.5 20:56:06 10° NNW 21:01:17 31° NE 21:06:11 13° E
Cosmos 1862 4.1 20:58:02 10° N 21:01:43 34° ENE 21:04:33 15° SE
Cosmos 1634 Rocket 4.0 20:56:09 10° S 21:02:26 79° E 21:08:47 10° N
Cosmos 1092 Rocket 4.2 20:56:58 10° N 21:03:19 77° W 21:09:38 10° S
Helios 1B rocket 2.4 21:00:01 10° NNE 21:04:07 67° ESE 21:08:11 10° S
Cosmos 1707 Rocket 3.9 21:00:09 10° SSW 21:04:34 69° W 21:09:00 10° N
Lacrosse 4 Rocket 1.7 21:01:13 10° NNW 21:05:28 56° ENE 21:08:46 17° SE
ERS-1 Rocket 3.8 21:02:09 14° SE 21:05:52 34° ENE 21:10:22 10° N
USA 186 2.3 21:03:43 10° S 21:06:20 48° W 21:09:08 10° NNW
Cosmos 1655 Rocket 4.2 21:02:59 10° N 21:09:17 58° ENE 21:15:32 10° SSE
ERBS 2.4 21:06:58 10° NW 21:10:26 76° SW 21:12:44 20° SE
Cosmos 1733 Rocket 3.4 21:06:32 10° N 21:10:51 48° ENE 21:14:14 16° SSE
Meteor 2-20 Rocket 4.4 21:05:15 10° N 21:11:23 77° E 21:17:30 10° SSE
SAR-Lupe-4 3.6 21:08:20 10° SSE 21:11:55 82° W 21:15:31 10° NNW
Cosmos 1939 Rocket 2.9 21:08:25 12° SSE 21:12:07 64° ENE 21:16:07 10° N
CENTAUR R/B 4.2 21:07:45 10° WSW 21:13:28 37° NW 21:19:57 10° NNE
ARGOS 4.5 21:11:28 15° ESE 21:14:19 24° ENE 21:18:30 10° NNE
Cosmos 1862 Rocket 3.8 21:13:25 10° SSE 21:17:41 47° E 21:22:00 10° NNE
SeaSat 1 3.7 21:17:14 16° E 21:20:03 27° NE 21:24:10 10° N
Cosmos 1408 2.6 21:20:40 10° N 21:24:23 81° W 21:27:28 14° S
Cosmos 1992 Rocket 4.0 21:19:25 10° S 21:24:32 58° ESE 21:29:41 10° NNE
Atlas Centaur 2 3.8 21:22:37 10° SW 21:28:28 26° SSE 21:31:32 21° SE
Terra 4.0 21:31:23 10° ENE 21:32:19 11° ENE 21:33:16 10° NE
Abrixas rocket 3.5 21:29:45 10° W 21:32:53 39° NNW 21:35:56 10° NE
Cosmos 2242 Rocket 4.0 21:31:39 10° SSW 21:36:08 66° W 21:40:36 10° N
Cosmos 1703 Rocket 4.4 21:37:03 28° ESE 21:37:43 29° E 21:41:34 10° NNE
Helios 1A 4.4 21:37:29 10° SSW 21:41:25 37° W 21:45:23 10° NNW
Cosmos 2279 Rocket 4.0 21:37:27 10° S 21:43:42 85° W 21:49:58 10° N
Cosmos 1867 4.0 21:44:35 10° NNW 21:49:53 48° NE 21:52:05 31° ESE
MetOp-A 4.2 21:47:17 30° SE 21:49:54 62° ENE 21:55:12 10° N
Resurs 01 Rocket 4.5 21:51:04 10° WSW 21:53:18 14° W 21:55:33 10° WNW
H-2A R/B 3.0 21:52:49 27° E 21:53:55 30° ENE 21:58:12 10° N
OAO 3 Rocket 3.9 21:51:32 10° WSW 21:56:00 36° S 21:56:39 34° SSE
YAOGAN 6 3.1 21:56:56 31° SSW 21:58:25 57° W 22:02:01 10° NNW
Cosmos 968 Rocket 3.5 22:00:04 10° NNW 22:05:15 69° ENE 22:06:50 44° SE
SPOT 5 2.9 22:04:10 44° SE 22:05:33 65° ENE 22:10:12 10° N
Cosmos 2263 Rocket 2.3 22:00:15 10° NNW 22:05:47 69° WSW 22:08:25 32° S
COSMOS 2428 3.6 22:10:11 31° E 22:10:11 31° E 22:14:23 10° NE
Meteor 1-25 Rocket 4.5 22:04:08 10° N 22:09:34 49° ENE 22:10:48 41° ESE
Meteor 2-10 Rocket 3.7 22:05:36 16° S 22:10:21 88° W 22:16:11 10° N
Cosmos 2322 Rocket 3.3 22:05:55 10° SW 22:11:16 45° WNW 22:16:40 10° NNE
Sich 1 Rocket 3.6 22:10:52 10° N 22:15:21 79° W 22:16:31 49° S
Cosmos 2360 Rocket 2.1 22:15:49 10° SSW 22:21:29 89° ESE 22:27:12 10° NNE
H-2A R/B 3.1 22:23:59 32° NE 22:23:59 32° NE 22:27:25 10° N
BREEZE-M DEB (TANK) 4.5 22:20:26 10° WNW 22:24:29 66° N 22:39:00 10° E
USA 234 4.1 22:22:54 26° S 22:25:48 39° SW 22:31:51 10° WNW
Cosmos 1908 Rocket 4.0 22:23:38 10° NNW 22:27:53 55° W 22:28:49 45° SW
Meteor 1-20 Rocket 4.2 22:23:45 10° N 22:29:17 64° ENE 22:30:10 56° ESE
Cosmos 2322 3.6 22:25:27 21° SSW 22:29:21 88° ESE 22:35:06 10° NNE
USA 245 4.3 22:30:44 43° S 22:32:43 75° WSW 22:37:56 10° NNW
Meteor 1-22 4.4 22:32:22 10° N 22:37:45 75° E 22:38:20 67° SE
SL-16 R/B 4.1 22:34:21 10° WSW 22:39:15 29° NW 22:44:11 10° N
SPOT 1/Viking Rocket 3.5 22:40:22 65° S 22:41:08 84° WSW 22:46:24 10° NNW
Cosmos 1782 Rocket 3.7 22:37:37 10° NNW 22:41:58 69° W 22:41:59 69° W
Lacrosse 4 Rocket 3.9 22:41:20 10° WNW 22:43:44 15° WSW 22:45:08 13° SW
Okean 2 Rocket 3.1 22:40:43 10° N 22:44:59 79° NNW 22:44:59 79° NNW
ATLAS 5 CENTAUR R/B 2.6 22:40:25 10° NW 22:46:23 62° WSW 22:47:45 50° S
Cosmos 2333 Rocket 3.7 22:52:12 23° ENE 22:52:12 23° ENE 22:54:50 10° NE
Cosmos 2333 4.3 22:51:47 60° E 22:51:47 60° E 22:56:57 10° NNE
Cosmos 1782 4.0 22:53:34 37° NNE 22:53:34 37° NNE 22:56:04 10° N
Landsat 7 3.8 22:54:28 78° N 22:54:28 78° N 22:58:56 10° NNW
ARGOS 3.8 22:52:58 41° SW 22:54:13 48° W 22:59:27 10° NNW
Milstar 3 4.4 22:50:04 10° WSW 22:53:09 17° SSW 22:53:09 17° SSW
Cosmos 2237 Rocket 4.1 22:59:46 18° ENE 22:59:46 18° ENE 23:01:30 10° NE
SeaSat 1 3.1 22:57:02 44° WSW 22:57:21 45° WSW 23:02:05 10° NW
Cosmos 2278 Rocket 3.2 22:54:49 10° N 22:59:54 33° NE 23:00:07 32° ENE
Cosmos 1417 Rocket 4.4 23:03:56 70° ESE 23:04:10 70° E 23:10:29 10° NNE
Cosmos 1745 Rocket 4.3 22:59:21 10° N 23:05:29 50° ENE 23:05:30 50° ENE
Cosmos 1777 Rocket 4.1 23:01:32 10° NNW 23:06:40 69° W 23:06:40 69° W
Okean 1-7 4.1 23:07:56 42° W 23:08:00 42° WNW 23:12:12 10° N
Cosmos 1844 Rocket 2.6 23:03:38 10° NNW 23:09:04 84° NNE 23:09:04 84° NNE
Terra 2.1 23:10:04 63° N 23:10:04 63° N 23:14:04 10° NNW
NOSS 3-1 (C) 4.2 23:11:31 38° ENE 23:11:31 38° ENE 23:15:38 10° NE
Meteor 1-27 Rocket 4.1 23:12:59 51° NE 23:12:59 51° NE 23:17:29 10° NNE
USA 229 DEB 3.9 23:06:01 10° SW 23:12:49 68° NW 23:19:46 10° NNE
USA 229 3.9 23:06:06 10° SW 23:12:53 69° NW 23:19:51 10° NNE
Atlas Centaur 2 4.1 23:10:16 10° WSW 23:14:12 27° SW 23:14:12 27° SW
SL-19 R/B 4.3 23:17:52 10° NNE 23:24:00 81° WNW 23:24:13 80° WSW
Cosmos 2219 Rocket 2.6 23:28:37 52° NE 23:28:37 52° NE 23:32:52 10° NNE
CZ-4C R/B 3.2 23:23:57 10° NNW 23:30:51 54° NE 23:32:09 49° E
H-2A R/B 3.2 23:33:27 32° W 23:33:27 32° W 23:37:44 10° NNW
Meteor 1-11 Rocket 3.9 23:28:23 10° N 23:33:08 67° N 23:33:08 67° N
ASTEX 1 4.4 23:43:30 43° WNW 23:43:30 43° WNW 23:47:29 10° NNW
Cosmos 1553 Rocket 4.1 23:48:00 67° W 23:48:02 67° W 23:54:16 10° N
COSMOS 2428 3.9 23:52:07 33° W 23:53:32 39° WNW 23:58:51 10° N
